Погода в Кармартене

Великобритания     51°51′35″N   4°18′26″W
темп.,
°C
ветер,
м/с
пор.,
м/с
влажн.,
%
обл.,
%
осадки,
мм/ч
давл.,
гПа
погр.,
м
13 июня, вс
вс1301:00+11ссв33815 0.0 102851
04:00+12св34875 0.0 102759
07:00+14вюв12855 0.0 102867
10:00+17ю23802 0.0 1027316
13:00+19ююз33761 0.0 1027504
16:00+19юз338012 0.0 1025462
19:00+17зюз22857 0.0 1025160
22:00+13ююз11880 0.0 102411
14 июня, пн
пн1401:00+13ююз11890 0.0 102311
04:00+13з11925 0.0 102213
07:00+14зюз1188100 0.0 102262
10:00+16зсз238890 0.0 1023455
13:00+18сз4580100 0.1 1022604
16:00+17сз4579100 0.1 1023494
19:00+15с4682100 0.1 1023354
22:00+11с348691 0.0 102479
15 июня, вт
вт1501:00+10ссв3384100 0.0 102450
04:00+10св2382100 0.0 102347
07:00+11всв2277100 0.0 102374
10:00+15ю2273100 0.0 1023389
13:00+16ю346871 0.0 1022556
16:00+16юз346986 0.0 1020479
19:00+14юз2375100 0.0 1018197
22:00+12ююз118357 0.0 101811
16 июня, ср
ср1601:00+11ююв22865 0.0 101713
04:00+10юв11890 0.0 101518
07:00+12юв12902 0.0 101484
10:00+15ююз337419 0.0 1014452
13:00+16юз337219 0.0 1014459
16:00+16зюз32786 0.0 1013369
19:00+16з238659 0.1 1012287
22:00+13с2293100 0.0 101350
17 июня, чт
чт1701:00+12с3585100 0.1 1012131
04:00+11с358897 0.0 1011127
07:00+12ссв398496 0.0 1011277
10:00+15с6877100 0.0 1011407
13:00+17с677882 0.0 1012580
16:00+17с677799 0.0 1013597
19:00+15с7118199 0.0 1013466
22:00+13с61183100 0.0 1015265